Dobrodošli na spletni strani vremenske postaje Senovo. Vse informacije so informativnega značaja, saj vremenska postaja ni del državne mreže meteoroloških postaj. AKTUALNIH OBVESTIL NI.


Posebna pozornost v zvezi z vremenskimi dogajanji ni potrebna.    Posebna pozornost v zvezi z vremenskimi dogajanji ni potrebna.

Pogled proti Armezu več informacij Pogled proti Armezu


Bohor več informacij Bohor


Radar strel več informacij blitzortung!


Radar padavin več informacij rain snow radar


Obiščite še:

Template documentation
and downloads

And another site



Weather Underground, zgodovina - Tekstovno

Dnevni povzetek za December 24, 2017 Enote:  Metrično    Angleško   Obe
« Predhodni Dan
Naslednji Dan »
Dnevni Tedenski Mesečni Letni Po meri
  Višja: Nižja: Povprečje:
Temperatura: -17.8 °C -19.7 °C -17.7 °C
Točka rosišča: -17.8 °C -20.1 °C -18.5 °C
Vlažnost: Humidity % 0 % 84 %
Hitrost vetra: 0 km/h 0 km/h 0.8 km/h
Sunki vetra: 0 km/h - -
Veter:- - SW
Zračni tlak: 0 hPa 0 hPa -
Padavine: 0 mm    
Historical Graphs
 
 
Tabelarni podarki za December 24, 2017
Čas Temperatura Točka rosišča Zračni tlak Veter Hitrost vetra Sunki vetra Vlažnost Intenziteta padavin (urna)
-17.8 °C -17.8 °C 0 hPa Calm     Humidity % 0 mm
00:00 -18.7 °C -19.4 °C 34740.4 hPa NNW 2.6 km/h 3.4 km/h 91 % 0 mm
00:05 -18.8 °C -19.5 °C 34740.4 hPa North 0.5 km/h   91 % 0 mm
00:07 -18.8 °C -19.5 °C 34740.4 hPa North 0.5 km/h   91 % 0 mm
00:08 -18.8 °C -19.5 °C 34740.4 hPa North 0.5 km/h   91 % 0 mm
00:13 -18.8 °C -19.5 °C 34740.4 hPa Calm     91 % 0 mm
00:14 -18.8 °C -19.5 °C 34740.4 hPa Calm     91 % 0 mm
00:19 -18.8 °C -19.5 °C 34740.4 hPa Calm     91 % 0 mm
00:24 -18.8 °C -19.6 °C 34740.4 hPa Calm     91 % 0 mm
00:29 -18.8 °C -19.6 °C 34703.1 hPa Calm     91 % 0 mm
00:32 -18.8 °C -19.6 °C 34703.1 hPa West 1.3 km/h 3.4 km/h 91 % 0 mm
00:37 -18.8 °C -19.6 °C 34703.1 hPa NW 1.6 km/h 5.1 km/h 91 % 0 mm
00:39 -18.8 °C -19.6 °C 34703.1 hPa NW 1.8 km/h 5.1 km/h 91 % 0 mm
00:44 -18.9 °C -19.5 °C 34703.1 hPa NNW 1.6 km/h 4.2 km/h 92 % 0 mm
00:45 -18.9 °C -19.5 °C 34703.1 hPa NNW 1.6 km/h 4.2 km/h 92 % 0 mm
00:50 -18.9 °C -19.5 °C 34703.1 hPa North 0.5 km/h   92 % 0 mm
00:54 -18.9 °C -19.5 °C 34703.1 hPa NNW 0.8 km/h 5.6 km/h 92 % 0 mm
00:59 -18.9 °C -19.6 °C 34703.1 hPa NNW 0.8 km/h 5.6 km/h 92 % 0 mm
01:04 -18.9 °C -19.6 °C 34703.1 hPa NNW 0.8 km/h 5.6 km/h 92 % 0 mm
01:08 -18.9 °C -19.6 °C 34703.1 hPa North 0.3 km/h 7.6 km/h 92 % 0 mm
01:13 -19 °C -19.6 °C 34703.1 hPa NNW 1 km/h 7.6 km/h 92 % 0 mm
01:18 -19 °C -19.6 °C 34703.1 hPa NW 0.8 km/h 5.1 km/h 92 % 0 mm
01:19 -19 °C -19.6 °C 34703.1 hPa NW 0.5 km/h 5.1 km/h 92 % 0 mm
01:24 -19 °C -19.6 °C 34703.1 hPa Calm     92 % 0 mm
01:27 -19 °C -19.6 °C 34703.1 hPa Calm   6.4 km/h 92 % 0 mm
01:29 -19 °C -19.6 °C 34703.1 hPa NNE 0.3 km/h 6.4 km/h 92 % 0 mm
01:32 -17.8 °C -19.6 °C 0 hPa Calm     0 % 0 mm
01:37 -19.1 °C -19.7 °C 0 hPa Calm     92 % 0 mm
01:42 -19.1 °C -19.7 °C 0 hPa Calm     92 % 0 mm
01:44 -19.1 °C -19.7 °C 34669.3 hPa Calm     92 % 0 mm
01:47 -19.1 °C -19.7 °C 34669.3 hPa Calm     92 % 0 mm
01:52 -19.1 °C -19.7 °C 34669.3 hPa WSW 2.1 km/h 8 km/h 92 % 0 mm
01:54 -19.1 °C -19.7 °C 34669.3 hPa WSW 2.3 km/h 8 km/h 92 % 0 mm
01:59 -19.1 °C -19.7 °C 34669.3 hPa West 2.6 km/h 8 km/h 92 % 0 mm
02:00 -19.1 °C -19.7 °C 34669.3 hPa WNW 2.3 km/h 8 km/h 92 % 0 mm
02:05 -19.1 °C -19.7 °C 34669.3 hPa NW 0.5 km/h 4.2 km/h 92 % 0 mm
02:07 -19.1 °C -19.7 °C 34669.3 hPa NW 0.5 km/h 4.2 km/h 92 % 0 mm
02:10 -19.1 °C -19.7 °C 34669.3 hPa Calm     92 % 0 mm
02:15 -19.1 °C -19.7 °C 34669.3 hPa Calm     92 % 0 mm
02:16 -19.1 °C -19.7 °C 34669.3 hPa Calm     92 % 0 mm
02:17 -19.1 °C -19.7 °C 34669.3 hPa Calm     92 % 0 mm
02:22 -19.1 °C -19.7 °C 34669.3 hPa Calm     92 % 0 mm
02:28 -19.1 °C -19.7 °C 34669.3 hPa Calm     92 % 0 mm
02:33 -19.2 °C -19.7 °C 34703.1 hPa Calm     93 % 0 mm
02:38 -19.1 °C -19.7 °C 34703.1 hPa Calm     93 % 0 mm
02:43 -19.1 °C -19.7 °C 34703.1 hPa Calm     93 % 0 mm
02:44 -19.2 °C -19.7 °C 34703.1 hPa Calm     93 % 0 mm
02:45 -19.2 °C -19.7 °C 34703.1 hPa Calm     93 % 0 mm
02:50 -19.2 °C -19.7 °C 34703.1 hPa Calm     93 % 0 mm
02:54 -19.2 °C -19.7 °C 34703.1 hPa Calm     93 % 0 mm
02:59 -19.1 °C -19.7 °C 34669.3 hPa Calm     93 % 0 mm
03:01 -19.1 °C -19.7 °C 34669.3 hPa Calm     93 % 0 mm
03:04 -19.1 °C -19.7 °C 34669.3 hPa Calm     93 % 0 mm
03:09 -19.1 °C -19.7 °C 34669.3 hPa Calm     93 % 0 mm
03:10 -19.1 °C -19.7 °C 34669.3 hPa Calm     93 % 0 mm
03:14 -19.1 °C -19.7 °C 34669.3 hPa Calm     93 % 0 mm
03:20 -19.1 °C -19.7 °C 34669.3 hPa Calm     93 % 0 mm
03:25 -19.1 °C -19.7 °C 34669.3 hPa Calm     93 % 0 mm
03:26 -19.1 °C -19.7 °C 34669.3 hPa Calm     93 % 0 mm
03:31 -19.1 °C -19.7 °C 34703.1 hPa Calm     93 % 0 mm
03:32 -19.1 °C -19.7 °C 34703.1 hPa Calm     93 % 0 mm
03:36 -19.1 °C -19.7 °C 34703.1 hPa Calm     93 % 0 mm
03:40 -19.1 °C -19.7 °C 34703.1 hPa Calm     93 % 0 mm
03:42 -19.1 °C -19.7 °C 34703.1 hPa Calm     93 % 0 mm
03:47 -19.1 °C -19.7 °C 34740.4 hPa Calm     93 % 0 mm
03:48 -19.1 °C -19.7 °C 34740.4 hPa Calm     93 % 0 mm
03:53 -19.2 °C -19.7 °C 34740.4 hPa Calm     93 % 0 mm
03:55 -19.2 °C -19.7 °C 34740.4 hPa Calm     93 % 0 mm
04:00 -19.2 °C -19.7 °C 34703.1 hPa Calm     93 % 0 mm
04:05 -19.2 °C -19.7 °C 34703.1 hPa Calm     93 % 0 mm
04:10 -19.2 °C -19.8 °C 34703.1 hPa Calm     93 % 0 mm
04:12 -19.2 °C -19.8 °C 34703.1 hPa Calm     93 % 0 mm
04:16 -19.2 °C -19.8 °C 34703.1 hPa Calm     93 % 0 mm
04:17 -19.2 °C -19.8 °C 34703.1 hPa Calm     93 % 0 mm
04:22 -19.3 °C -19.8 °C 34703.1 hPa Calm     93 % 0 mm
04:23 -19.3 °C -19.8 °C 34703.1 hPa Calm     93 % 0 mm
04:26 -19.3 °C -19.8 °C 34703.1 hPa Calm     93 % 0 mm
04:29 -19.3 °C -19.8 °C 34703.1 hPa Calm     93 % 0 mm
04:34 -19.3 °C -19.8 °C 34703.1 hPa Calm     93 % 0 mm
04:35 -19.3 °C -19.8 °C 34703.1 hPa Calm     93 % 0 mm
04:40 -19.3 °C -19.8 °C 34703.1 hPa Calm     93 % 0 mm
04:41 -19.3 °C -19.9 °C 34703.1 hPa Calm     93 % 0 mm
04:47 -19.3 °C -19.9 °C 34703.1 hPa Calm     93 % 0 mm
04:50 -19.3 °C -19.9 °C 34703.1 hPa Calm     93 % 0 mm
04:55 -19.3 °C -19.9 °C 34703.1 hPa Calm     93 % 0 mm
05:00 -19.4 °C -19.9 °C 34703.1 hPa Calm     93 % 0 mm
05:01 -19.4 °C -19.9 °C 34703.1 hPa Calm     93 % 0 mm
05:06 -19.4 °C -19.9 °C 34703.1 hPa Calm     93 % 0 mm
05:07 -19.4 °C -19.9 °C 34703.1 hPa Calm     93 % 0 mm
05:10 -19.4 °C -19.9 °C 34703.1 hPa Calm     94 % 0 mm
05:15 -19.4 °C -19.9 °C 34703.1 hPa Calm   5.1 km/h 94 % 0 mm
05:16 -19.4 °C -19.9 °C 34703.1 hPa East 0.3 km/h 5.1 km/h 94 % 0 mm
05:19 -19.4 °C -19.9 °C 34703.1 hPa NNE 0.5 km/h 5.1 km/h 94 % 0 mm
05:22 -19.4 °C -19.9 °C 34703.1 hPa NNE 0.8 km/h 5.1 km/h 94 % 0 mm
05:27 -19.4 °C -19.9 °C 34703.1 hPa WNW 0.5 km/h 5.1 km/h 94 % 0 mm
05:28 -19.4 °C -19.9 °C 34703.1 hPa WNW 0.5 km/h 5.1 km/h 94 % 0 mm
05:33 -19.4 °C -19.9 °C 34703.1 hPa WNW 0.3 km/h 5.1 km/h 94 % 0 mm
05:37 -19.4 °C -19.9 °C 34703.1 hPa WNW 0.3 km/h 4.2 km/h 94 % 0 mm
05:39 -19.5 °C -19.9 °C 34703.1 hPa Calm     94 % 0 mm
05:43 -19.5 °C -19.9 °C 34703.1 hPa Calm     94 % 0 mm
05:44 -19.5 °C -19.9 °C 34703.1 hPa Calm     94 % 0 mm
05:48 -19.5 °C -19.9 °C 34703.1 hPa Calm     94 % 0 mm
05:49 -19.5 °C -19.9 °C 34703.1 hPa Calm     94 % 0 mm
05:54 -19.6 °C -20.1 °C 34703.1 hPa Calm     94 % 0 mm
05:59 -19.6 °C -20.1 °C 34703.1 hPa Calm     94 % 0 mm
06:04 -19.6 °C -20.1 °C 34703.1 hPa Calm     94 % 0 mm
06:05 -19.6 °C -20.1 °C 34703.1 hPa Calm     94 % 0 mm
06:09 -19.6 °C -20.1 °C 34703.1 hPa Calm     94 % 0 mm
06:12 -19.6 °C -20.1 °C 34703.1 hPa Calm     94 % 0 mm
06:14 -19.6 °C -20.1 °C 34703.1 hPa Calm     94 % 0 mm
06:19 -19.6 °C -20.1 °C 34703.1 hPa Calm     94 % 0 mm
06:20 -19.6 °C -20.1 °C 34703.1 hPa Calm     94 % 0 mm
06:21 -19.6 °C -20.1 °C 34703.1 hPa Calm     94 % 0 mm
06:26 -19.6 °C -20.1 °C 34703.1 hPa Calm     94 % 0 mm
06:28 -19.6 °C -20.1 °C 34703.1 hPa Calm     94 % 0 mm
06:32 -19.6 °C -20.1 °C 34703.1 hPa Calm     94 % 0 mm
06:33 -19.6 °C -20.1 °C 34703.1 hPa Calm     94 % 0 mm
06:38 -19.7 °C -20.1 °C 34703.1 hPa Calm     94 % 0 mm
06:39 -19.7 °C -20.1 °C 34703.1 hPa Calm     94 % 0 mm
06:41 -19.7 °C -20.1 °C 34703.1 hPa Calm     94 % 0 mm
06:46 -19.7 °C -20.1 °C 34703.1 hPa Calm     94 % 0 mm
06:51 -19.7 °C -20.1 °C 34703.1 hPa Calm     94 % 0 mm
06:56 -19.7 °C -20.1 °C 34703.1 hPa Calm     94 % 0 mm
07:01 -19.7 °C -20.1 °C 34703.1 hPa Calm     94 % 0 mm
07:03 -19.7 °C -20.1 °C 34703.1 hPa Calm     94 % 0 mm
07:08 -19.7 °C -20.1 °C 34703.1 hPa Calm     94 % 0 mm
07:11 -19.7 °C -20.1 °C 34703.1 hPa Calm     94 % 0 mm
07:15 -19.7 °C -20.1 °C 34703.1 hPa Calm     94 % 0 mm
07:17 -19.7 °C -20.1 °C 34703.1 hPa Calm     94 % 0 mm
07:22 -19.7 °C -20.1 °C 34703.1 hPa Calm     94 % 0 mm
07:23 -19.7 °C -20.1 °C 34703.1 hPa Calm     94 % 0 mm
07:26 -19.7 °C -20.1 °C 34703.1 hPa Calm     94 % 0 mm
07:30 -19.7 °C -20.1 °C 34703.1 hPa Calm     94 % 0 mm
07:35 -19.7 °C -20.1 °C 34703.1 hPa Calm     94 % 0 mm
07:37 -19.7 °C -20.1 °C 34703.1 hPa Calm     94 % 0 mm
07:42 -19.7 °C -20.1 °C 34703.1 hPa West 4.2 km/h 7.6 km/h 94 % 0 mm
07:43 -19.7 °C -20.1 °C 34703.1 hPa West 4.2 km/h 7.6 km/h 94 % 0 mm
07:48 -19.7 °C -20.1 °C 34703.1 hPa West 4.2 km/h 7.6 km/h 94 % 0 mm
07:51 -19.7 °C -20.1 °C 34703.1 hPa West 3.7 km/h 7.6 km/h 94 % 0 mm
07:56 -19.7 °C -20.1 °C 34703.1 hPa Calm     94 % 0 mm
07:57 -19.7 °C -20.1 °C 34703.1 hPa Calm     94 % 0 mm
08:02 -19.7 °C -20.1 °C 34703.1 hPa Calm     94 % 0 mm
08:03 -19.7 °C -20.1 °C 34703.1 hPa Calm     94 % 0 mm
08:07 -19.7 °C -20.1 °C 34703.1 hPa Calm     94 % 0 mm
08:08 -19.7 °C -20.1 °C 34703.1 hPa Calm     94 % 0 mm
08:12 -19.7 °C -20.1 °C 34703.1 hPa Calm     94 % 0 mm
08:15 -19.7 °C -20.1 °C 34703.1 hPa Calm     94 % 0 mm
08:18 -19.7 °C -20.1 °C 34703.1 hPa Calm     94 % 0 mm
08:23 -19.7 °C -20.1 °C 34703.1 hPa Calm     94 % 0 mm
08:24 -19.7 °C -20.1 °C 34703.1 hPa Calm     94 % 0 mm
08:30 -17.8 °C -20.1 °C 0 hPa Calm     0 % 0 mm
08:35 -17.8 °C -20.1 °C 34703.1 hPa North 0.3 km/h   0 % 0 mm
08:36 -19.4 °C -19.9 °C 34703.1 hPa North 0.3 km/h   94 % 0 mm
08:41 -19.4 °C -19.9 °C 34703.1 hPa Calm     94 % 0 mm
08:43 -19.4 °C -19.8 °C 34703.1 hPa Calm     94 % 0 mm
08:48 -19.3 °C -19.8 °C 34703.1 hPa Calm     94 % 0 mm
08:52 -19.3 °C -19.8 °C 34703.1 hPa Calm     94 % 0 mm
08:54 -19.3 °C -19.8 °C 34703.1 hPa Calm     94 % 0 mm
08:59 -19.2 °C -19.7 °C 34703.1 hPa Calm     94 % 0 mm
09:00 -19.1 °C -19.5 °C 34703.1 hPa Calm     95 % 0 mm
09:05 -19.1 °C -19.4 °C 34703.1 hPa Calm     95 % 0 mm
09:06 -19.1 °C -19.4 °C 34703.1 hPa Calm   4.2 km/h 95 % 0 mm
09:11 -19 °C -19.4 °C 34703.1 hPa SW 0.8 km/h 6.9 km/h 95 % 0 mm
09:16 -18.8 °C -19.2 °C 34703.1 hPa SW 0.8 km/h 6.9 km/h 95 % 0 mm
09:18 -18.8 °C -19.2 °C 34703.1 hPa SW 0.3 km/h 2.9 km/h 95 % 0 mm
09:21 -18.8 °C -19.2 °C 34703.1 hPa Calm     95 % 0 mm
09:25 -18.7 °C -19.1 °C 34703.1 hPa Calm     95 % 0 mm
09:30 -18.6 °C -19 °C 34669.3 hPa Calm     95 % 0 mm
09:31 -18.6 °C -18.9 °C 34669.3 hPa Calm     95 % 0 mm
09:35 -18.4 °C -18.8 °C 34669.3 hPa Calm     95 % 0 mm
09:39 -18.4 °C -18.8 °C 34669.3 hPa SSW 0.5 km/h 5.1 km/h 95 % 0 mm
09:44 -18.3 °C -18.7 °C 34740.4 hPa SSW 0.5 km/h 5.1 km/h 95 % 0 mm
09:45 -18.3 °C -18.7 °C 34740.4 hPa SSW 0.5 km/h 5.1 km/h 95 % 0 mm
09:54 -18.3 °C -18.7 °C 34669.3 hPa South 1 km/h 3.4 km/h 95 % 0 mm
09:59 -17.9 °C -18.2 °C 34669.3 hPa SSW 0.5 km/h 3.4 km/h 96 % 0 mm
10:00 -17.8 °C -18.2 °C 34669.3 hPa SSW 0.3 km/h 3.4 km/h 96 % 0 mm
10:02 -17.8 °C -18.2 °C 34669.3 hPa SSW 0.3 km/h 3.4 km/h 96 % 0 mm
10:07 -17.7 °C -18 °C 34669.3 hPa South 0.3 km/h 2.9 km/h 96 % 0 mm
10:12 -17.6 °C -17.9 °C 34669.3 hPa South 0.3 km/h 5.6 km/h 96 % 0 mm
10:13 -17.6 °C -17.9 °C 34669.3 hPa SSE 0.3 km/h 5.6 km/h 96 % 0 mm
10:18 -17.4 °C -17.7 °C 34703.1 hPa SE 3.1 km/h 12.2 km/h 96 % 0 mm
10:19 -17.4 °C -17.7 °C 34703.1 hPa SE 3.7 km/h 12.2 km/h 96 % 0 mm
10:21 -17.4 °C -17.7 °C 34703.1 hPa SE 4.7 km/h 12.2 km/h 96 % 0 mm
10:26 -17.2 °C -17.6 °C 34703.1 hPa ESE 5.6 km/h 12.2 km/h 96 % 0 mm
10:30 -17.2 °C -17.6 °C 34703.1 hPa ESE 2.9 km/h 9.3 km/h 96 % 0 mm
10:32 -17.2 °C -17.6 °C 34703.1 hPa ESE 2.9 km/h 6.9 km/h 96 % 0 mm
10:37 -17.2 °C -17.6 °C 34703.1 hPa ESE 2.3 km/h 9.3 km/h 96 % 0 mm
10:38 -17.2 °C -17.6 °C 34703.1 hPa SE 2.3 km/h 9.3 km/h 96 % 0 mm
10:43 -17.2 °C -17.6 °C 34703.1 hPa SSW 2.9 km/h 6.9 km/h 96 % 0 mm
10:48 -17.2 °C -17.6 °C 34740.4 hPa SSW 4.7 km/h 6.9 km/h 96 % 0 mm
10:49 -17.2 °C -17.6 °C 34740.4 hPa SSW 4.3 km/h 6.9 km/h 96 % 0 mm
10:54 -17.2 °C -17.6 °C 34740.4 hPa SW 2.1 km/h 6.4 km/h 96 % 0 mm
10:56 -17.2 °C -17.6 °C 34740.4 hPa SW 1.8 km/h 5.1 km/h 96 % 0 mm
11:01 -17.2 °C -17.6 °C 34703.1 hPa SW 0.5 km/h 4.2 km/h 96 % 0 mm
11:06 -17.8 °C -17.6 °C 34703.1 hPa SE 5.1 km/h 6.9 km/h 0 % 0 mm
11:08 -17.8 °C -17.6 °C 34703.1 hPa SE 5.6 km/h 8 km/h 0 % 0 mm
11:13 -17.8 °C -17.6 °C 34703.1 hPa SSE 5.6 km/h 8 km/h 0 % 0 mm
11:14 -17.8 °C -17.6 °C 34703.1 hPa South 5.6 km/h 8 km/h 0 % 0 mm
11:19 -15.8 °C -16.1 °C 34703.1 hPa SSW 5.5 km/h 6.9 km/h 97 % 0 mm
11:21 -15.8 °C -16 °C 34703.1 hPa SSW 5.5 km/h 6.9 km/h 97 % 0 mm
11:26 -15.5 °C -15.7 °C 34703.1 hPa South 4.2 km/h 5.1 km/h 97 % 0 mm
11:31 -15.3 °C -15.5 °C 34669.3 hPa SSW 3.1 km/h 5.1 km/h 97 % 0 mm
11:32 -15.3 °C -15.5 °C 34669.3 hPa SSW 3.1 km/h 5.1 km/h 97 % 0 mm
11:37 -14.9 °C -15.1 °C 34669.3 hPa SSW 5.1 km/h 9.8 km/h 97 % 0 mm
11:42 -14.7 °C -14.9 °C 34669.3 hPa SW 6 km/h 9.8 km/h 97 % 0 mm
11:46 -14.4 °C -14.8 °C 34669.3 hPa WSW 3.9 km/h 8 km/h 96 % 0 mm
11:48 -14.4 °C -14.7 °C 34669.3 hPa WSW 2.1 km/h 8 km/h 96 % 0 mm
11:52 -14.2 °C -14.5 °C 34669.3 hPa North 0.3 km/h   97 % 0 mm
11:54 -14.1 °C -14.3 °C 34669.3 hPa Calm     97 % 0 mm
11:57 -14 °C -14.3 °C 34669.3 hPa Calm     97 % 0 mm
11:59 -13.9 °C -14.2 °C 34669.3 hPa Calm     96 % 0 mm
12:02 -13.8 °C -14.2 °C 34669.3 hPa Calm     96 % 0 mm
12:06 -13.7 °C -14.1 °C 34669.3 hPa Calm     96 % 0 mm
12:11 -13.6 °C -13.9 °C 34669.3 hPa South 0.8 km/h 4.2 km/h 96 % 0 mm
12:13 -13.6 °C -13.9 °C 34669.3 hPa South 0.8 km/h 4.2 km/h 96 % 0 mm
12:17 -13.4 °C -13.8 °C 34669.3 hPa South 0.8 km/h 4.2 km/h 96 % 0 mm
12:18 -13.4 °C -13.8 °C 34669.3 hPa South 0.3 km/h 2.9 km/h 96 % 0 mm
12:23 -13.3 °C -13.7 °C 34669.3 hPa South 2.9 km/h 6.4 km/h 95 % 0 mm
12:24 -13.3 °C -13.7 °C 34669.3 hPa South 3.4 km/h 6.4 km/h 95 % 0 mm
12:29 -13.2 °C -13.6 °C 34635.4 hPa SSE 2.1 km/h 6.4 km/h 95 % 0 mm
12:34 -13.1 °C -13.5 °C 34635.4 hPa SE 1 km/h 5.6 km/h 95 % 0 mm
12:39 -12.9 °C -13.4 °C 34635.4 hPa WSW 1 km/h 5.1 km/h 95 % 0 mm
12:44 -12.9 °C -13.4 °C 34669.3 hPa SW 1 km/h 5.1 km/h 94 % 0 mm
12:49 -17.8 °C -13.3 °C 34669.3 hPa WSW 0.3 km/h 5.1 km/h 0 % 0 mm
12:50 -12.9 °C -13.4 °C 34669.3 hPa WSW 0.3 km/h 5.1 km/h 94 % 0 mm
12:55 -12.9 °C -13.4 °C 34669.3 hPa Calm   5.6 km/h 94 % 0 mm
12:57 -17.8 °C -13.4 °C 34669.3 hPa Calm     0 % 0 mm
13:02 -13.1 °C -13.7 °C 34635.4 hPa WSW 2.1 km/h 5.1 km/h 92 % 0 mm
13:03 -13.1 °C -13.7 °C 34635.4 hPa WSW 2.1 km/h 5.1 km/h 92 % 0 mm
13:08 -13.1 °C -13.7 °C 34635.4 hPa SW 2.6 km/h 6.9 km/h 92 % 0 mm
13:09 -13.1 °C -13.7 °C 34635.4 hPa SW 3.1 km/h 7.6 km/h 92 % 0 mm
13:14 -13.1 °C -13.8 °C 34601.5 hPa SW 3.7 km/h 7.6 km/h 91 % 0 mm
13:19 -13.1 °C -13.8 °C 34601.5 hPa SW 2.3 km/h 7.6 km/h 91 % 0 mm
13:21 -13.1 °C -13.8 °C 34601.5 hPa SSW 1.3 km/h 4.2 km/h 91 % 0 mm
13:22 -13.1 °C -13.8 °C 34601.5 hPa SSW 1 km/h 4.2 km/h 91 % 0 mm
13:27 -13.2 °C -14.1 °C 34601.5 hPa SSW 0.3 km/h 4.2 km/h 89 % 0 mm
13:29 -13.2 °C -14.1 °C 34635.4 hPa SSW 0.8 km/h 4.2 km/h 89 % 0 mm
13:31 -13.2 °C -14.2 °C 34635.4 hPa SW 1 km/h 6.4 km/h 88 % 0 mm
13:34 -13.2 °C -14.2 °C 34635.4 hPa SW 1.8 km/h 6.4 km/h 88 % 0 mm
13:40 -17.8 °C -14.2 °C 0 hPa Calm     0 % 0 mm
13:45 -17.8 °C -14.2 °C 34635.4 hPa SSE 0.8 km/h 6.4 km/h 0 % 0 mm
13:48 -17.8 °C -14.2 °C 34635.4 hPa SSE 0.5 km/h 6.4 km/h 0 % 0 mm
13:53 -17.8 °C -14.2 °C 34635.4 hPa Calm     0 % 0 mm
13:54 -17.8 °C -14.2 °C 34635.4 hPa Calm     0 % 0 mm
13:59 -17.8 °C -14.2 °C 34669.3 hPa Calm   4.2 km/h 0 % 0 mm
14:00 -17.8 °C -14.2 °C 34669.3 hPa SSW 0.8 km/h 4.2 km/h 0 % 0 mm
14:05 -13.2 °C -14.6 °C 34669.3 hPa WSW 5 km/h 6.9 km/h 85 % 0 mm
14:06 -13.2 °C -14.6 °C 34669.3 hPa WSW 5.1 km/h 6.9 km/h 85 % 0 mm
14:11 -13.2 °C -14.6 °C 34669.3 hPa WSW 6 km/h 7.6 km/h 85 % 0 mm
14:18 -17.8 °C -12.9 °C 0 hPa Calm     0 % 0 mm
14:20 -17.8 °C -12.9 °C 0 hPa WSW 1.6 km/h 2.9 km/h 0 % 0 mm
14:25 -12.1 °C -14.8 °C 34601.5 hPa WSW 4.2 km/h 4.2 km/h 72 % 0 mm
14:27 -12.2 °C -14.9 °C 34601.5 hPa WSW 2.9 km/h 3.4 km/h 71 % 0 mm
14:32 -12.6 °C -15.6 °C 34635.4 hPa North 0.3 km/h   69 % 0 mm
14:33 -12.7 °C -15.7 °C 34635.4 hPa Calm     69 % 0 mm
14:38 -12.9 °C -16 °C 34635.4 hPa WNW 0.3 km/h 5.6 km/h 68 % 0 mm
14:39 -12.9 °C -16 °C 34635.4 hPa WNW 0.3 km/h 5.6 km/h 68 % 0 mm
14:44 -13.1 °C -16.2 °C 34635.4 hPa WNW 1 km/h 5.6 km/h 68 % 0 mm
14:45 -13.1 °C -16.2 °C 34669.3 hPa WNW 1 km/h 5.6 km/h 68 % 0 mm
14:46 -13.3 °C -16.5 °C 34669.3 hPa West 1.3 km/h 5.6 km/h 67 % 0 mm
14:51 -13.4 °C -16.5 °C 34669.3 hPa NW 1.6 km/h 6.4 km/h 68 % 0 mm
14:52 -13.4 °C -16.5 °C 34669.3 hPa NW 1.3 km/h 6.4 km/h 68 % 0 mm
14:54 -13.6 °C -16.6 °C 34669.3 hPa NW 1.3 km/h 6.4 km/h 68 % 0 mm
14:59 -13.9 °C -17 °C 34669.3 hPa NNW 2.3 km/h 6.9 km/h 68 % 0 mm
15:00 -13.9 °C -17 °C 34669.3 hPa NNW 2.1 km/h 6.9 km/h 68 % 0 mm
15:05 -14.2 °C -17.3 °C 34669.3 hPa NW 3.1 km/h 6.9 km/h 68 % 0 mm
15:08 -14.3 °C -17.2 °C 34669.3 hPa NW 1.6 km/h 6.9 km/h 69 % 0 mm
15:10 -14.3 °C -17.2 °C 34669.3 hPa NW 1.6 km/h 6.9 km/h 69 % 0 mm
15:14 -14.5 °C -17.4 °C 34635.4 hPa North 1.3 km/h   69 % 0 mm
15:16 -14.6 °C -17.4 °C 34635.4 hPa North 1 km/h   69 % 0 mm
15:21 -14.8 °C -17.6 °C 34635.4 hPa North 2.9 km/h   70 % 0 mm
15:25 -14.8 °C -17.6 °C 34635.4 hPa NW 3.4 km/h 8 km/h 70 % 0 mm
15:26 -14.8 °C -17.6 °C 34635.4 hPa NW 3.7 km/h 8 km/h 70 % 0 mm
15:31 -15.1 °C -17.7 °C 34635.4 hPa NW 5 km/h 8 km/h 71 % 0 mm
15:33 -15.1 °C -17.8 °C 34635.4 hPa NNW 6 km/h 8 km/h 71 % 0 mm
15:39 -15.2 °C -17.8 °C 34635.4 hPa NNW 6.4 km/h 6.4 km/h 72 % 0 mm
15:42 -15.2 °C -17.8 °C 34635.4 hPa NNW 5.5 km/h 5.5 km/h 72 % 0 mm
15:43 -15.2 °C -17.8 °C 34635.4 hPa NNW 5.5 km/h 5.5 km/h 72 % 0 mm
15:48 -15.4 °C -17.9 °C 34635.4 hPa NNW 3.1 km/h 3.1 km/h 72 % 0 mm
15:53 -15.5 °C -17.9 °C 34635.4 hPa Calm     73 % 0 mm
15:57 -15.6 °C -18.1 °C 34635.4 hPa Calm     73 % 0 mm
16:00 -15.6 °C -18.1 °C 34635.4 hPa Calm     73 % 0 mm
16:05 -15.7 °C -18.1 °C 34635.4 hPa Calm     74 % 0 mm
16:07 -15.7 °C -18.1 °C 34635.4 hPa WNW 0.8 km/h 4.2 km/h 74 % 0 mm
16:12 -15.7 °C -18.1 °C 34635.4 hPa WNW 1.6 km/h 4.2 km/h 74 % 0 mm
16:17 -15.8 °C -18.1 °C 34635.4 hPa WNW 2.1 km/h 4.2 km/h 75 % 0 mm
16:18 -15.8 °C -18.1 °C 34635.4 hPa WNW 2.1 km/h 4.2 km/h 75 % 0 mm
16:22 -15.8 °C -18.1 °C 34635.4 hPa NW 1.8 km/h 4.2 km/h 75 % 0 mm
16:26 -16 °C -18.2 °C 34635.4 hPa NW 3.4 km/h 4.2 km/h 75 % 0 mm
16:31 -16 °C -18.2 °C 34635.4 hPa NW 3.4 km/h 4.2 km/h 75 % 0 mm
16:36 -16.2 °C -18.3 °C 34635.4 hPa NW 3.4 km/h 4.2 km/h 76 % 0 mm
16:40 -16.3 °C -18.4 °C 34635.4 hPa NW 1 km/h 4.2 km/h 76 % 0 mm
16:41 -16.3 °C -18.4 °C 34635.4 hPa NW 1 km/h 4.2 km/h 76 % 0 mm
16:46 -16.3 °C -18.4 °C 34635.4 hPa Calm     77 % 0 mm
16:47 -16.3 °C -18.4 °C 34635.4 hPa Calm     77 % 0 mm
16:49 -16.3 °C -18.4 °C 34635.4 hPa Calm     77 % 0 mm
16:55 -16.5 °C -18.5 °C 34635.4 hPa Calm     77 % 0 mm
17:00 -16.6 °C -18.6 °C 34635.4 hPa Calm     77 % 0 mm
17:04 -16.6 °C -18.6 °C 34635.4 hPa Calm     77 % 0 mm
17:07 -16.7 °C -18.6 °C 34635.4 hPa Calm     78 % 0 mm
17:12 -16.7 °C -18.7 °C 34635.4 hPa Calm     78 % 0 mm
17:13 -16.7 °C -18.7 °C 34635.4 hPa Calm     78 % 0 mm
17:18 -16.8 °C -18.7 °C 34669.3 hPa Calm     78 % 0 mm
17:19 -16.8 °C -18.7 °C 34669.3 hPa Calm     78 % 0 mm
17:24 -16.9 °C -18.8 °C 34669.3 hPa Calm     78 % 0 mm
17:25 -16.9 °C -18.8 °C 34669.3 hPa Calm     78 % 0 mm
17:30 -17 °C -18.8 °C 34635.4 hPa Calm     79 % 0 mm
17:31 -17 °C -18.8 °C 34635.4 hPa Calm     79 % 0 mm
17:33 -17.1 °C -18.8 °C 34635.4 hPa Calm     79 % 0 mm
17:38 -17.1 °C -18.8 °C 34635.4 hPa Calm     79 % 0 mm
17:42 -17.2 °C -18.9 °C 34635.4 hPa Calm     79 % 0 mm
17:47 -17.2 °C -18.9 °C 34601.5 hPa Calm     79 % 0 mm
17:52 -17.3 °C -19 °C 34601.5 hPa Calm     80 % 0 mm
17:57 -17.3 °C -19 °C 34601.5 hPa Calm     80 % 0 mm
17:58 -17.3 °C -19 °C 34601.5 hPa Calm     80 % 0 mm
18:03 -17.3 °C -19.1 °C 34635.4 hPa Calm     80 % 0 mm
18:06 -17.4 °C -19.1 °C 34635.4 hPa Calm     80 % 0 mm
18:08 -17.4 °C -19.1 °C 34635.4 hPa Calm     80 % 0 mm
18:11 -17.4 °C -19.1 °C 34635.4 hPa Calm     81 % 0 mm
18:16 -17.4 °C -19.1 °C 34635.4 hPa Calm     81 % 0 mm
18:18 -17.4 °C -19.1 °C 34635.4 hPa Calm     81 % 0 mm
18:22 -17.5 °C -19.1 °C 34635.4 hPa Calm     81 % 0 mm
18:24 -17.6 °C -19.2 °C 34635.4 hPa Calm     81 % 0 mm
18:29 -17.6 °C -19.2 °C 34635.4 hPa Calm     81 % 0 mm
18:30 -17.6 °C -19.2 °C 34635.4 hPa Calm     81 % 0 mm
18:31 -17.6 °C -19.1 °C 34635.4 hPa Calm     82 % 0 mm
18:36 -17.6 °C -19.1 °C 34635.4 hPa Calm     82 % 0 mm
18:38 -17.7 °C -19.2 °C 34635.4 hPa Calm     82 % 0 mm
18:41 -17.7 °C -19.2 °C 34635.4 hPa Calm     82 % 0 mm
18:44 -17.7 °C -19.2 °C 34635.4 hPa Calm     82 % 0 mm
18:47 -17.7 °C -19.2 °C 34635.4 hPa Calm     82 % 0 mm
18:50 -17.7 °C -19.2 °C 34635.4 hPa Calm     82 % 0 mm
18:55 -17.8 °C -19.3 °C 34635.4 hPa Calm     82 % 0 mm
18:58 -17.8 °C -19.3 °C 34635.4 hPa Calm     83 % 0 mm
19:03 -17.9 °C -19.3 °C 34601.5 hPa Calm     83 % 0 mm
19:08 -17.9 °C -19.3 °C 34601.5 hPa Calm     83 % 0 mm
19:13 -18 °C -19.4 °C 34601.5 hPa Calm     83 % 0 mm
19:14 -18 °C -19.4 °C 34635.4 hPa Calm     83 % 0 mm
19:18 -18.1 °C -19.5 °C 34635.4 hPa Calm     83 % 0 mm
19:20 -18.1 °C -19.5 °C 34635.4 hPa Calm     83 % 0 mm
19:25 -18.1 °C -19.5 °C 34635.4 hPa Calm     83 % 0 mm
19:29 -18.1 °C -19.4 °C 34601.5 hPa Calm     84 % 0 mm
19:34 -18.2 °C -19.5 °C 34601.5 hPa Calm     84 % 0 mm
19:35 -18.2 °C -19.5 °C 34601.5 hPa Calm     84 % 0 mm
19:40 -18.2 °C -19.5 °C 34601.5 hPa Calm     84 % 0 mm
19:45 -18.2 °C -19.6 °C 34601.5 hPa Calm     84 % 0 mm
19:46 -18.2 °C -19.6 °C 34601.5 hPa Calm     84 % 0 mm
19:51 -18.2 °C -19.6 °C 34601.5 hPa Calm     84 % 0 mm
19:56 -18.3 °C -19.6 °C 34601.5 hPa Calm     84 % 0 mm
19:59 -18.3 °C -19.6 °C 34601.5 hPa Calm     85 % 0 mm
20:04 -18.3 °C -19.6 °C 34601.5 hPa Calm     85 % 0 mm
20:05 -18.3 °C -19.6 °C 34601.5 hPa Calm     85 % 0 mm
20:08 -18.4 °C -19.6 °C 34601.5 hPa Calm     85 % 0 mm
20:10 -18.4 °C -19.6 °C 34601.5 hPa Calm     85 % 0 mm
20:15 -18.4 °C -19.6 °C 34635.4 hPa Calm     85 % 0 mm
20:19 -17.8 °C -19.6 °C 0 hPa Calm     0 % 0 mm
20:24 -18.4 °C -19.6 °C 34635.4 hPa Calm     86 % 0 mm
20:29 -18.5 °C -19.6 °C 34635.4 hPa Calm     86 % 0 mm
20:31 -18.5 °C -19.6 °C 34635.4 hPa Calm     86 % 0 mm
20:36 -18.6 °C -19.7 °C 34635.4 hPa Calm     86 % 0 mm
20:37 -18.6 °C -19.7 °C 34635.4 hPa Calm     86 % 0 mm
20:40 -18.6 °C -19.7 °C 34635.4 hPa Calm     86 % 0 mm
20:43 -17.8 °C -19.7 °C 34635.4 hPa Calm     0 % 0 mm
20:48 -18.6 °C -19.7 °C 34635.4 hPa Calm     86 % 0 mm
20:53 -18.6 °C -19.7 °C 34635.4 hPa Calm     86 % 0 mm
20:54 -18.6 °C -19.7 °C 34635.4 hPa Calm     86 % 0 mm
20:56 -18.6 °C -19.8 °C 34635.4 hPa Calm     86 % 0 mm
20:59 -18.6 °C -19.8 °C 34635.4 hPa Calm     86 % 0 mm
21:03 -18.7 °C -19.8 °C 34635.4 hPa Calm     86 % 0 mm
21:07 -18.7 °C -19.7 °C 34635.4 hPa Calm     87 % 0 mm
21:12 -18.6 °C -19.7 °C 34635.4 hPa Calm     87 % 0 mm
21:14 -18.6 °C -19.7 °C 34635.4 hPa WSW 0.3 km/h 5.6 km/h 87 % 0 mm
21:19 -18.7 °C -19.7 °C 34635.4 hPa North 0.8 km/h 5.6 km/h 87 % 0 mm
21:24 -18.7 °C -19.8 °C 34635.4 hPa North 1 km/h 5.1 km/h 87 % 0 mm
21:25 -18.7 °C -19.8 °C 34635.4 hPa North 1 km/h 5.1 km/h 87 % 0 mm
21:30 -18.7 °C -19.8 °C 34635.4 hPa Calm     87 % 0 mm
21:35 -18.7 °C -19.8 °C 34635.4 hPa Calm     87 % 0 mm
21:36 -18.7 °C -19.8 °C 34635.4 hPa Calm     87 % 0 mm
21:37 -18.7 °C -19.8 °C 34635.4 hPa Calm     87 % 0 mm
21:42 -18.8 °C -19.8 °C 34635.4 hPa Calm     87 % 0 mm
21:45 -18.8 °C -19.8 °C 34635.4 hPa Calm     87 % 0 mm
21:50 -18.8 °C -19.9 °C 34635.4 hPa Calm     87 % 0 mm
21:52 -18.8 °C -19.9 °C 34635.4 hPa Calm     87 % 0 mm
21:54 -18.8 °C -19.9 °C 34635.4 hPa Calm     87 % 0 mm
21:59 -18.8 °C -19.8 °C 34635.4 hPa Calm   3.4 km/h 88 % 0 mm
22:01 -18.8 °C -19.8 °C 34635.4 hPa Calm   3.4 km/h 88 % 0 mm
22:03 -18.8 °C -19.8 °C 34635.4 hPa Calm   3.4 km/h 88 % 0 mm
22:07 -18.9 °C -19.8 °C 34635.4 hPa Calm     88 % 0 mm
22:09 -18.9 °C -19.8 °C 34635.4 hPa Calm     88 % 0 mm
22:14 -18.9 °C -19.8 °C 34635.4 hPa Calm     88 % 0 mm
22:18 -18.9 °C -19.8 °C 34635.4 hPa Calm     88 % 0 mm
22:22 -18.9 °C -19.9 °C 34635.4 hPa Calm     88 % 0 mm
22:27 -18.9 °C -19.9 °C 34635.4 hPa Calm   4.2 km/h 88 % 0 mm
22:32 -18.9 °C -19.9 °C 34601.5 hPa Calm     88 % 0 mm
Vremenska postaja Senovo
Podatki zbrani iz Weather Underground - 3.5 mb

Script developed by  Jim McMurry - jmcmurry@mwt.net Adapted for the template by  Wim van der Kuil - Leuven-Template.eu

Vremenski podatki so objavljeni na:

European Weather Network

WeatherCloud

Weather Underground

AWEKAS

HAMweather, WeatherForYou, PWS Weather

MapView

Geostik

Slovenia weather network

Oprema, ki se uporablja:

Vremenski program
Cumulus

Vremenski server
Asus

Cumulus

Asus